{"data":{"norad_id":62284,"epoch":"2026-05-25T00:18:46.802016Z","epoch_age_seconds":69945,"freshness":"FRESH","line1":"1 62284U 24237T   26145.01304169  .00016805  00000+0  61827-3 0  9998","line2":"2 62284  43.0000 145.4038 0001425 255.0396 105.0298 15.27609440 82865","mean_motion":15.2760944,"eccentricity":0.0001425,"inclination_deg":43,"raan_deg":145.4038,"arg_perigee_deg":255.0396,"mean_anomaly_deg":105.0298,"bstar":0.00061827,"rev_number":8286,"period_min":94.26493201037,"perigee_km":481.98323704747,"apogee_km":483.93864996137,"semimajor_km":6861.0979435044,"source":"CELESTRAK","updated_at":"2026-05-25T13:38:19.645517Z"}}